Englewood, Florida, United States (34223)
Lat: 26.96N, Lon: 82.35W
Wx Zone: FLZ060
Local Info
Past Weather Observations for Thursday, April 16, 2015

NOTE: This archive is for the closest National Weather Service station to Englewood. Information may differ from the station used for current weather conditions.

Click here for Long-term Archive

Time Weather Temperature Dewpoint Humidity Pressure Winds Precip Visibility
23:53
Overcast
75°F / 24°C 72°F / 22°C 89% 30.12 in
(1020 mb)
N 4.6 mph
(N 7 kph)
- 10SM
22:53
Overcast
73°F / 23°C 72°F / 22°C 94% 30.12 in
(1020 mb)
NNW 3.5 mph
(NNW 6 kph)
- 10SM
21:53
Clear
75°F / 24°C 72°F / 22°C 89% 30.12 in
(1020 mb)
NNW 3.5 mph
(NNW 6 kph)
- 10SM
20:53
Clear
77°F / 25°C 70°F / 21°C 79% 30.09 in
(1019 mb)
NW 5.8 mph
(NW 9 kph)
- 10SM
19:53
Clear
79°F / 26°C 70°F / 21°C 74% 30.06 in
(1018 mb)
NW 3.5 mph
(NW 6 kph)
- 10SM
18:53
Clear
81°F / 27°C 70°F / 21°C 70% 30.06 in
(1018 mb)
W 6.9 mph
(W 11 kph)
- 10SM
17:53
Clear
82°F / 28°C 70°F / 21°C 66% 30.04 in
(1017 mb)
SSW 9.2 mph
(SSW 15 kph)
- 10SM
16:53
Clear
82°F / 28°C 70°F / 21°C 66% 30.04 in
(1017 mb)
SSW 11.5 mph
(SSW 19 kph)
- 10SM
15:53
Clear
86°F / 30°C 72°F / 22°C 62% 30.04 in
(1017 mb)
SSW 13.8 mph
(SSW 22 kph)
- 10SM
14:53
Clear
88°F / 31°C 70°F / 21°C 55% 30.06 in
(1018 mb)
SSW 11.5 mph
(SSW 19 kph)
- 10SM
13:53
Clear
88°F / 31°C 70°F / 21°C 55% 30.06 in
(1018 mb)
SSW 12.7 mph
(SSW 20 kph)
- 10SM
12:53
Partly Cloudy
88°F / 31°C 70°F / 21°C 55% 30.09 in
(1019 mb)
SSW 12.7 mph
(SSW 20 kph)
- 10SM
11:53
Partly Cloudy
88°F / 31°C 68°F / 20°C 52% 30.09 in
(1019 mb)
SW 6.9 mph
(SW 11 kph)
- 10SM
10:53
Clear
84°F / 29°C 66°F / 19°C 55% 30.09 in
(1019 mb)
S 8.1 mph
(S 13 kph)
- 10SM
09:53
Partly Cloudy
81°F / 27°C 70°F / 21°C 70% 30.12 in
(1020 mb)
S 6.9 mph
(S 11 kph)
- 10SM
08:53
Clear
79°F / 26°C 72°F / 22°C 79% 30.12 in
(1020 mb)
SSE 10.4 mph
(SSE 17 kph)
- 10SM
07:53
Clear
75°F / 24°C 72°F / 22°C 89% 30.12 in
(1020 mb)
SE 5.8 mph
(SE 9 kph)
- 10SM
06:53
Clear
70°F / 21°C 70°F / 21°C 100% 30.12 in
(1020 mb)
Calm - 10SM
06:48
Clear
70°F / 21°C 70°F / 21°C 100% 30.12 in
(1020 mb)
Calm - 10SM
06:41
Clear
Fog And Mist
70°F / 21°C 70°F / 21°C 100% 30.12 in
(1020 mb)
Calm - 2 1/2SM
05:53
Clear
70°F / 21°C 68°F / 20°C 94% 30.09 in
(1019 mb)
Calm - 10SM
04:53
Clear
72°F / 22°C 70°F / 21°C 94% 30.09 in
(1019 mb)
SE 4.6 mph
(SE 7 kph)
- 10SM
03:53
Clear
72°F / 22°C 70°F / 21°C 94% 30.06 in
(1018 mb)
SSE 5.8 mph
(SSE 9 kph)
- 10SM
03:02
Partly Cloudy
72°F / 22°C 72°F / 22°C 100% 30.06 in
(1018 mb)
ESE 5.8 mph
(ESE 9 kph)
- 10SM
02:53
Mostly Cloudy
73°F / 23°C 72°F / 22°C 94% 30.06 in
(1018 mb)
ESE 3.5 mph
(ESE 6 kph)
- 10SM
02:40
Mostly Cloudy
73°F / 23°C 72°F / 22°C 94% 30.09 in
(1019 mb)
SSE 3.5 mph
(SSE 6 kph)
- 10SM
01:53
Overcast
73°F / 23°C 72°F / 22°C 94% 30.09 in
(1019 mb)
SE 3.5 mph
(SE 6 kph)
- 10SM
01:45
Overcast
72°F / 22°C 72°F / 22°C 100% 30.09 in
(1019 mb)
Calm - 10SM
01:31
Mostly Cloudy
72°F / 22°C 72°F / 22°C 100% 30.09 in
(1019 mb)
Calm - 10SM
01:16
Mostly Cloudy
72°F / 22°C 70°F / 21°C 94% 30.09 in
(1019 mb)
E 3.5 mph
(E 6 kph)
- 10SM
00:53
Mostly Cloudy
73°F / 23°C 72°F / 22°C 94% 30.09 in
(1019 mb)
Calm - 10SM
Time Weather Temperature Dewpoint Humidity Pressure Winds Precip Visibility


Weather for websites

WeatherForYou.com, LLC is not responsible for any damages or problems caused by this service. Current weather conditions are obtained from the closest station including government and personal stations which may have varying degrees of accuracy. Weather forecasts are derived from the NOAA NDFD. Like all things, this site belongs to Jesus Christ... He just trusts me to maintain it. If you have any questions or comments email webmaster@weatherforyou.com

Copyright © 2015, WeatherForYou.com LLC. All rights reserved.